LiveATC.Net - Listen to live air traffic control over the Internet!


ICAO: EPGD  IATA: GDN   Airport: Gdansk Lech Walesa Airport
City: Gdansk
Country: Poland   Continent: Europe
EPGD METAR Weather: EPGD 290600Z 32008KT 290V040 6000 -RASN BKN003 BKN009 01/00 Q0995
EPGD Flight Activity (FlightAware)
EPGD Webcam:  (Airport Webcams) 

EPGD Tower/Approach
Feed Status: UP   Listeners: 1
Listen in your browser - HTML5 player (in browser, HTML5)
Click here to listen with your own player (launches your MP3 player)
Archive Access: EPGD Tower/Approach
FacilityFrequency
Gdansk Approach127.275
Gdansk Tower118.100

NOTICE

Unauthorized use prohibited. See LiveATC.net Terms of Service


Airport/ARTCC Code
Frequency Search
(e.g., 124.400, 128.75)
Site-wide search
 


Browse Feeds
Top 50 Feeds
HF Oceanic Feeds
Coverage Map
Bad Weather Areas

LiveATC FAQ
Offer LiveATC feed
Contact LiveATC.net
Press Inquiries

LiveATC on iPhone
LiveATC on Android

Windows Phone
Windows 8/10

LiveATC Mobile
(Mobile browser)

ATC Audio Archives
Interesting Recordings

LiveATC Forums


Home Page
About LiveATC.net
Make a Donation
Terms of Use
Privacy Policy

Canadian Air Freqs

AIRMETs/SIGMETs

FAA Airport Status
NAS Status
Arrival Demand


Server Software By:
Icecast.org
Liquidsoap